カタログに戻る

COSMOS 917 DEB

LostHEO
NORAD 27885·DEBRIS·🇷🇺 Russia

打ち上げ Jun 16, 1977 から Plesetsk Cosmodrome

Loading…

次のパス (今後24時間)

TLE

古いSource: Space-Track

元期: Mar 9, 2014, 23:00 UTC

1 27885U 77047H   14068.95837890 -.00000216  00000-0  00000+0 0  9992
2 27885  66.9118 299.1317 5994653  61.7590 343.7769  2.04115500353631

AllMySatでCOSMOS 917 DEBをリアルタイム追跡

Download on the App Store